Ukiah, CA

4:02 AM PDT on September 25, 2016 (GMT -0700)
Ukiah Municipal

Weather History for KUKI - August, 2012

Change the Weather History Date:

Thursday, August 16, 2012

  Actual Average Record
Temperature  
Mean Temperature 78 °F 73 °F  
Max Temperature 102 °F 92 °F 106 °F (1920)
Min Temperature 54 °F 54 °F 43 °F (1911)
Degree Days  
Heating Degree Days 0 0  
Month to date heating degree days 0 0  
Since 1 June heating degree days 63 33  
Since 1 July heating degree days 0 1  
Cooling Degree Days 13 8  
Month to date cooling degree days 201 136  
Year to date cooling degree days 650 579  
Since 1 June cooling degree days 588 527  
Growing Degree Days 28 (Base 50)    
Moisture  
Dew Point 47 °F    
Average Humidity 44    
Maximum Humidity 77    
Minimum Humidity 11    
Precipitation  
Precipitation 0.00 in 0.00 in 0.07 in (1976)
Month to date precipitation T 0.01  
Year to date precipitation 18.92 23.43  
Since 1 July precipitation T  
Snow  
Snow 0.00 in - - ()
Month to date snowfall 0.0  
Since 1 June snowfall 0.0  
Since 1 July snowfall 0.0  
Snow Depth 0.00 in    
Sea Level Pressure  
Sea Level Pressure 29.88 in    
Wind  
Wind Speed 4 mph (SSE)    
Max Wind Speed 13 mph    
Max Gust Speed 15 mph    
Visibility 10 miles    
Events      
T = Trace of Precipitation, MM = Missing Value Source: NWS Daily Summary

Daily Weather History Graph

Daily Weather History Graph

Search for Another Location

Airport or City:

Trip Planner

Search our weather history database for the weather conditions in past years. The results will help you decide how hot, cold, wet, or windy it might be!

Date:

Astronomy

Aug. 16, 2012 Rise Set
Actual Time 6:27 AM PDT 8:05 PM PDT
Civil Twilight 5:58 AM PDT 8:34 PM PDT
Nautical Twilight 5:24 AM PDT 9:08 PM PDT
Astronomical Twilight 4:48 AM PDT 9:44 PM PDT
Moon 5:31 AM PDT (8/16) 7:18 PM PDT (8/16)
Length of Visible Light 14h 35m
Length of Day
13h 38m
Waning Crescent, 1% of the Moon is Illuminated
Aug 16
Waning Crescent
Aug 17
New
Aug 24
First Quarter
Aug 31
Full
Sep 8
Last Quarter

Hourly Weather History & Observations

Time (PDT) Temp. Dew Point Humidity Pressure Visibility Wind Dir Wind Speed Gust Speed Precip Events Conditions
12:56 AM 62.1 °F 48.9 °F 62% 29.87 in 10.0 mi South 5.8 mph - N/A   Clear
1:56 AM 60.1 °F 48.9 °F 67% 29.87 in 10.0 mi South 8.1 mph - N/A   Clear
2:56 AM 57.9 °F 48.9 °F 72% 29.88 in 10.0 mi SE 4.6 mph - N/A   Clear
3:56 AM 55.9 °F 48.9 °F 77% 29.88 in 10.0 mi South 4.6 mph - N/A   Clear
4:56 AM 55.0 °F 48.9 °F 80% 29.89 in 10.0 mi South 3.5 mph - N/A   Clear
5:56 AM 55.4 °F 48.2 °F 77% 29.92 in 10.0 mi SSE 3.5 mph - N/A   Clear
6:56 AM 55.0 °F 48.9 °F 80% 29.92 in 10.0 mi Calm Calm - N/A   Clear
7:56 AM 57.0 °F 50.0 °F 77% 29.93 in 10.0 mi Calm Calm - N/A   Clear
8:56 AM 64.0 °F 50.0 °F 60% 29.93 in 10.0 mi Calm Calm - N/A   Clear
9:56 AM 69.1 °F 52.0 °F 54% 29.92 in 10.0 mi Calm Calm - N/A   Clear
10:56 AM 77.0 °F 53.1 °F 43% 29.92 in 10.0 mi Calm Calm - N/A   Clear
11:56 AM 82.9 °F 43.0 °F 24% 29.90 in 10.0 mi ESE 3.5 mph - N/A   Clear
12:56 PM 89.1 °F 48.9 °F 25% 29.87 in 10.0 mi Variable 3.5 mph - N/A   Clear
1:56 PM 95.0 °F 41.0 °F 15% 29.85 in 10.0 mi East 5.8 mph - N/A   Clear
2:56 PM 100.0 °F 37.9 °F 12% 29.83 in 10.0 mi SE 8.1 mph - N/A   Clear
3:56 PM 102.0 °F 37.9 °F 11% 29.82 in 10.0 mi South 6.9 mph - N/A   Clear
4:56 PM 99.0 °F 41.0 °F 14% 29.81 in 10.0 mi WSW 10.4 mph - N/A   Clear
5:56 PM 96.1 °F 45.0 °F 17% 29.81 in 10.0 mi SW 10.4 mph - N/A   Clear
6:56 PM 89.1 °F 52.0 °F 28% 29.83 in 10.0 mi NNE 8.1 mph - N/A   Clear
7:56 PM 82.9 °F 50.0 °F 32% 29.85 in 10.0 mi North 4.6 mph - N/A   Clear
8:56 PM 75.2 °F 46.4 °F 36% 29.90 in 10.0 mi Calm Calm - N/A   Clear
9:56 PM 71.1 °F 50.0 °F 47% 29.89 in 10.0 mi Calm Calm - N/A   Clear
10:56 PM 70.0 °F 51.1 °F 51% 29.91 in 10.0 mi Calm Calm - N/A   Clear
11:56 PM 66.0 °F 48.9 °F 54% 29.92 in 10.0 mi Calm Calm - N/A   Clear